Charlevoix, MI

2:53 PM EST on February 18, 2018 (GMT -0500)
Charlevoix Municipal

Weather History for KCVX - February, 2014

Change the Weather History Date:

Thursday, February 27, 2014

  Actual Average Record
Temperature  
Mean Temperature -3 °F -  
Max Temperature 6 °F 48 °F 46 °F (2016)
Min Temperature -16 °F 32 °F -17 °F (2015)
Degree Days  
Heating Degree Days 68    
Moisture  
Dew Point -11 °F    
Average Humidity 65    
Maximum Humidity 84    
Minimum Humidity 45    
Precipitation  
Precipitation 0.00 in - - ()
Sea Level Pressure  
Sea Level Pressure 29.91 in    
Wind  
Wind Speed 14 mph (NNW)    
Max Wind Speed 25 mph    
Max Gust Speed 36 mph    
Visibility 7 miles    
Events Snow    
Averages and records for this station are not official NWS values.
T = Trace of Precipitation, MM = Missing Value Source: NWS Daily Summary

Daily Weather History Graph

Daily Weather History Graph

Search for Another Location

Airport or City:

Trip Planner

Search our weather history database for the weather conditions in past years. The results will help you decide how hot, cold, wet, or windy it might be!

Date:

Astronomy

Feb. 27, 2014 Rise Set
Actual Time 7:22 AM EST 6:25 PM EST
Civil Twilight 6:53 AM EST 6:55 PM EST
Nautical Twilight 6:18 AM EST 7:29 PM EST
Astronomical Twilight 5:44 AM EST 8:03 PM EST
Moon 5:58 AM EST (2/27) 4:47 PM EST (2/27)
Length of Visible Light 12h 02m
Length of Day
11h 02m
Waning Crescent, 4% of the Moon is Illuminated
Feb 27
Waning Crescent
Mar 1
New
Mar 8
First Quarter
Mar 16
Full
Mar 23
Last Quarter

Hourly Weather History & Observations

Time (EST) Temp. Windchill Dew Point Humidity Pressure Visibility Wind Dir Wind Speed Gust Speed Precip Events Conditions
12:14 AM 10.0 °F -3.7 °F 4.6 °F 79% 29.47 in 5.0 mi NNW 10.4 mph - N/A Snow Light Snow
12:35 AM 9.5 °F -7.2 °F 5.5 °F 84% 29.47 in 1.5 mi NNW 15.0 mph - N/A Snow Light Snow
12:54 AM 6.6 °F -10.9 °F 2.5 °F 83% 29.48 in 1.0 mi North 15.0 mph 21.9 mph N/A Snow Light Snow
1:14 AM 6.3 °F -8.4 °F 2.1 °F 83% 29.50 in - North 10.4 mph - N/A   Overcast
1:35 AM 5.9 °F -9.7 °F -1.3 °F 72% 29.50 in - North 11.5 mph 19.6 mph N/A   Overcast
1:54 AM 5.4 °F -7.6 °F -2.2 °F 71% 29.52 in 10.0 mi North 8.1 mph - N/A   Overcast
2:14 AM 4.1 °F -12.0 °F -3.1 °F 72% 29.53 in 10.0 mi North 11.5 mph 16.1 mph N/A   Overcast
2:35 AM 3.2 °F -13.1 °F -3.6 °F 73% 29.54 in 10.0 mi North 11.5 mph - N/A   Overcast
2:54 AM 2.7 °F -13.8 °F -4.2 °F 73% 29.55 in 10.0 mi North 11.5 mph 18.4 mph N/A   Overcast
3:14 AM 1.9 °F -13.8 °F -5.8 °F 70% 29.57 in 10.0 mi North 10.4 mph - N/A   Overcast
3:34 AM 1.4 °F -13.5 °F -6.3 °F 70% 29.58 in 10.0 mi NNW 9.2 mph - N/A   Overcast
3:54 AM 1.4 °F -15.3 °F -6.7 °F 69% 29.59 in 10.0 mi NW 11.5 mph 19.6 mph N/A   Scattered Clouds
4:14 AM 0.5 °F -18.7 °F -6.2 °F 74% 29.60 in 2.5 mi NW 15.0 mph 23.0 mph N/A   Haze
4:34 AM 0.5 °F -20.0 °F -6.2 °F 74% 29.61 in 2.0 mi NW 17.3 mph 24.2 mph N/A   Haze
4:55 AM 0.5 °F -21.1 °F -7.2 °F 70% 29.62 in 2.5 mi NW 19.6 mph 27.6 mph N/A   Haze
5:14 AM 0.9 °F -20.1 °F -7.2 °F 69% 29.63 in 1.5 mi NW 18.4 mph 27.6 mph N/A Snow Light Snow
5:34 AM -0.0 °F -20.7 °F -7.4 °F 71% 29.64 in 1.8 mi NW 17.3 mph 28.8 mph N/A Snow Light Snow
5:55 AM -0.4 °F -23.3 °F -7.1 °F 73% 29.66 in 1.2 mi NW 21.9 mph 34.5 mph N/A Snow Light Snow
6:14 AM -0.0 °F -22.9 °F -7.4 °F 71% 29.67 in 2.5 mi NW 21.9 mph 29.9 mph N/A   Haze
6:35 AM -0.6 °F -23.1 °F -6.9 °F 75% 29.69 in 2.0 mi NW 20.7 mph 28.8 mph N/A   Haze
6:55 AM -1.1 °F -24.3 °F -7.6 °F 74% 29.70 in 1.8 mi NW 21.9 mph 29.9 mph N/A   Haze
7:14 AM -1.3 °F -25.5 °F -7.1 °F 77% 29.72 in 1.0 mi NW 24.2 mph 32.2 mph N/A Snow Light Snow
7:35 AM -1.7 °F -24.5 °F -7.6 °F 76% 29.74 in 1.0 mi NW 20.7 mph 29.9 mph N/A   Haze
7:55 AM -1.8 °F -26.7 °F -8.5 °F 73% 29.76 in 1.0 mi NW 25.3 mph 35.7 mph N/A Snow Light Snow
8:14 AM -1.5 °F -24.8 °F -8.5 °F 72% 29.78 in 1.5 mi NW 21.9 mph 31.1 mph N/A   Haze
8:35 AM -1.7 °F -24.5 °F -8.5 °F 73% 29.80 in 1.8 mi NW 20.7 mph 32.2 mph N/A   Haze
8:55 AM -2.2 °F -25.7 °F -9.4 °F 71% 29.82 in 1.2 mi NW 21.9 mph 32.2 mph N/A   Haze
9:14 AM -1.8 °F -25.2 °F -9.4 °F 70% 29.84 in 1.8 mi NW 21.9 mph 31.1 mph N/A   Haze
9:35 AM -1.8 °F -24.7 °F -10.5 °F 67% 29.86 in 2.5 mi NNW 20.7 mph 31.1 mph N/A   Haze
9:55 AM -1.5 °F -21.9 °F -10.7 °F 65% 29.87 in 4.0 mi NW 16.1 mph 28.8 mph N/A   Haze
10:14 AM -1.7 °F -25.5 °F -11.2 °F 64% 29.88 in 3.0 mi NW 23.0 mph 29.9 mph N/A   Haze
10:35 AM -0.9 °F -22.4 °F -11.6 °F 61% 29.90 in 3.0 mi NW 18.4 mph 29.9 mph N/A   Haze
10:54 AM -0.6 °F -24.5 °F -11.6 °F 60% 29.92 in 3.0 mi NW 24.2 mph 27.6 mph N/A   Haze
11:14 AM -0.4 °F -22.8 °F -12.6 °F 56% 29.93 in 4.0 mi NW 20.7 mph 27.6 mph N/A   Haze
11:35 AM -0.2 °F -22.1 °F -10.7 °F 61% 29.95 in 5.0 mi NW 19.6 mph 31.1 mph N/A   Haze
11:54 AM 0.3 °F -20.2 °F -11.6 °F 57% 29.96 in 4.0 mi NW 17.3 mph 29.9 mph N/A   Haze
12:15 PM 0.3 °F -19.6 °F -12.5 °F 55% 29.98 in 5.0 mi NW 16.1 mph 24.2 mph N/A   Haze
12:35 PM 0.5 °F -20.0 °F -14.1 °F 50% 29.99 in 7.0 mi NW 17.3 mph 26.5 mph N/A   Scattered Clouds
12:54 PM 1.0 °F -20.9 °F -13.7 °F 50% 30.00 in 10.0 mi WNW 20.7 mph 26.5 mph N/A   Scattered Clouds
1:15 PM 0.9 °F -20.7 °F -15.2 °F 47% 30.01 in 7.0 mi WNW 19.6 mph 27.6 mph N/A   Scattered Clouds
1:35 PM 0.9 °F -18.9 °F -16.1 °F 45% 30.02 in 7.0 mi NW 16.1 mph 26.5 mph N/A   Clear
1:54 PM 0.9 °F -19.5 °F -15.9 °F 45% 30.02 in 10.0 mi NW 17.3 mph 26.5 mph N/A   Clear
2:15 PM 1.2 °F -18.4 °F -15.3 °F 46% 30.03 in 10.0 mi NW 16.1 mph 21.9 mph N/A   Scattered Clouds
2:35 PM 1.2 °F -19.1 °F -14.8 °F 47% 30.05 in 10.0 mi NW 17.3 mph - N/A   Scattered Clouds
2:54 PM 1.0 °F -18.0 °F -15.7 °F 45% 30.05 in 10.0 mi WNW 15.0 mph 24.2 mph N/A   Clear
3:15 PM 0.1 °F -19.8 °F -14.4 °F 50% 30.07 in 10.0 mi WNW 16.1 mph 21.9 mph N/A   Scattered Clouds
3:34 PM 0.7 °F -18.5 °F -13.9 °F 50% 30.08 in 10.0 mi WNW 15.0 mph 19.6 mph N/A   Scattered Clouds
3:54 PM 0.1 °F -19.2 °F -13.5 °F 53% 30.09 in 10.0 mi WNW 15.0 mph 21.9 mph N/A   Scattered Clouds
4:15 PM -0.8 °F -18.9 °F -13.5 °F 55% 30.10 in 10.0 mi WNW 12.7 mph 18.4 mph N/A   Scattered Clouds
4:34 PM -0.6 °F -19.4 °F -11.0 °F 61% 30.10 in 7.0 mi NW 13.8 mph - N/A   Mostly Cloudy
4:55 PM -0.9 °F -18.3 °F -10.8 °F 63% 30.12 in 5.0 mi NW 11.5 mph 18.4 mph N/A   Haze
5:15 PM -1.1 °F -19.3 °F -9.9 °F 66% 30.12 in 4.0 mi NW 12.7 mph - N/A   Haze
5:34 PM -1.3 °F -17.8 °F -10.3 °F 66% 30.13 in 4.0 mi NW 10.4 mph 18.4 mph N/A   Haze
5:55 PM -1.7 °F -17.3 °F -10.5 °F 66% 30.13 in 10.0 mi NW 9.2 mph - N/A   Mostly Cloudy
6:15 PM -1.8 °F -15.2 °F -13.4 °F 58% 30.14 in 10.0 mi NNW 6.9 mph - N/A   Scattered Clouds
6:34 PM -2.6 °F -16.0 °F -14.4 °F 57% 30.14 in 10.0 mi North 6.9 mph - N/A   Clear
6:55 PM -3.5 °F -15.7 °F -14.8 °F 58% 30.15 in 10.0 mi North 5.8 mph - N/A   Clear
7:15 PM -3.8 °F -14.4 °F -15.0 °F 59% 30.16 in 10.0 mi NNE 4.6 mph - N/A   Clear
7:34 PM -4.2 °F -18.0 °F -15.9 °F 57% 30.16 in 10.0 mi NNE 6.9 mph - N/A   Clear
7:55 PM -4.4 °F -12.8 °F -16.6 °F 56% 30.17 in 10.0 mi NNE 3.5 mph - N/A   Clear
8:14 PM -4.9 °F - -16.8 °F 57% 30.17 in 10.0 mi Calm Calm - N/A   Clear
8:34 PM -5.6 °F -14.3 °F -17.0 °F 58% 30.17 in 10.0 mi NE 3.5 mph - N/A   Clear
8:55 PM -6.5 °F -15.3 °F -16.8 °F 61% 30.18 in 10.0 mi NE 3.5 mph - N/A   Clear
9:14 PM -6.7 °F -15.5 °F -17.5 °F 59% 30.18 in 10.0 mi NNE 3.5 mph - N/A   Clear
9:35 PM -7.1 °F - -17.7 °F 60% 30.19 in 10.0 mi Calm Calm - N/A   Clear
9:55 PM -12.3 °F - -19.8 °F 69% 30.19 in 10.0 mi Calm Calm - N/A   Clear
10:14 PM -13.5 °F - -20.4 °F 71% 30.20 in 10.0 mi Calm Calm - N/A   Clear
10:35 PM -15.5 °F - -21.6 °F 74% 30.21 in 10.0 mi Calm Calm - N/A   Clear
10:55 PM -15.7 °F - -21.6 °F 75% 30.21 in 10.0 mi Calm Calm - N/A   Clear
11:14 PM -15.9 °F - -22.0 °F 74% 30.21 in 10.0 mi Calm Calm - N/A   Clear
11:35 PM -16.6 °F - -22.7 °F 74% 30.22 in 10.0 mi Calm Calm - N/A   Clear
11:55 PM -16.1 °F - -21.6 °F 76% 30.22 in 10.0 mi Calm Calm - N/A   Clear